Weather History for KIIY - April, 2014

Change the Weather History Date:

Sunday, April 13, 2014

  Actual Average (KDBN) Record (KDBN)
Temperature  
Mean Temperature 70 °F -  
Max Temperature 82 °F 78 °F 91 °F (1948)
Min Temperature 59 °F 49 °F 31 °F (1940)
Cooling Degree Days 6    
Growing Degree Days 20 (Base 50)    
Moisture  
Dew Point 55 °F    
Average Humidity 61    
Maximum Humidity 94    
Minimum Humidity 34    
Precipitation  
Precipitation 0.00 in - - ()
Sea Level Pressure  
Sea Level Pressure 30.13 in    
Wind  
Wind Speed 5 mph (South)    
Max Wind Speed 10 mph    
Max Gust Speed 17 mph    
Visibility 10 miles    
Events      
Averages and records for this station are not official NWS values.
T = Trace of Precipitation, MM = Missing Value Source: NWS Daily Summary

Daily Weather History Graph

Daily Weather History Graph

Search for Another Location

Airport or City:

Trip Planner

Search our weather history database for the weather conditions in past years. The results will help you decide how hot, cold, wet, or windy it might be!

Date:

Astronomy

Apr. 13, 2014 Rise Set
Actual Time 7:03 AM EDT 8:00 PM EDT
Civil Twilight 6:37 AM EDT 8:26 PM EDT
Nautical Twilight 6:07 AM EDT 8:56 PM EDT
Astronomical Twilight 5:36 AM EDT 9:28 PM EDT
Moon 6:41 PM EDT (4/13) 5:56 AM EDT (4/13)
Length of Visible Light 13h 48m
Length of Day
12h 57m
Waxing Gibbous, 97% of the Moon is Illuminated
Apr 13
Waxing Gibbous
Apr 15
Full
Apr 22
Last Quarter
Apr 29
New
May 6
First Quarter

Hourly Weather History & Observations

Time (EDT) Temp. Heat Index Dew Point Humidity Pressure Visibility Wind Dir Wind Speed Gust Speed Precip Events Conditions
12:15 AM 59.0 °F - 55.4 °F 88% 30.15 in 10.0 mi SSE 3.5 mph - N/A   Clear
12:35 AM 60.8 °F - 53.6 °F 77% 30.15 in 10.0 mi South 4.6 mph - N/A   Clear
12:55 AM 60.8 °F - 55.4 °F 82% 30.15 in 10.0 mi South 4.6 mph - N/A   Clear
1:15 AM 60.8 °F - 53.6 °F 77% 30.14 in 10.0 mi SSE 3.5 mph - N/A   Clear
1:30 AM 62.6 °F - 55.4 °F 77% 30.15 in 10.0 mi South 4.6 mph - N/A   Clear
1:55 AM 62.6 °F - 53.6 °F 72% 30.15 in 10.0 mi SSE 4.6 mph - N/A   Clear
2:15 AM 62.6 °F - 53.6 °F 72% 30.15 in 10.0 mi South 3.5 mph - N/A   Clear
2:35 AM 60.8 °F - 53.6 °F 77% 30.15 in 10.0 mi South 3.5 mph - N/A   Clear
2:55 AM 62.6 °F - 53.6 °F 72% 30.14 in 10.0 mi South 4.6 mph - N/A   Clear
3:15 AM 60.8 °F - 53.6 °F 77% 30.14 in 10.0 mi South 3.5 mph - N/A   Clear
3:35 AM 60.8 °F - 53.6 °F 77% 30.14 in 10.0 mi South 4.6 mph - N/A   Clear
3:55 AM 62.6 °F - 53.6 °F 72% 30.14 in 10.0 mi South 5.8 mph - N/A   Clear
4:15 AM 62.6 °F - 53.6 °F 72% 30.14 in 10.0 mi South 4.6 mph - N/A   Clear
4:35 AM 60.8 °F - 51.8 °F 72% 30.14 in 10.0 mi South 4.6 mph - N/A   Clear
4:55 AM 60.8 °F - 53.6 °F 77% 30.14 in 10.0 mi South 3.5 mph - N/A   Clear
5:10 AM 59.0 °F - 53.6 °F 82% 30.14 in 10.0 mi South 3.5 mph - N/A   Clear
5:35 AM 59.0 °F - 53.6 °F 82% 30.15 in 10.0 mi South 3.5 mph - N/A   Clear
5:55 AM 59.0 °F - 53.6 °F 82% 30.15 in 10.0 mi SSW 3.5 mph - N/A   Clear
6:15 AM 59.0 °F - 55.4 °F 88% 30.15 in 10.0 mi South 4.6 mph - N/A   Clear
6:35 AM 59.0 °F - 53.6 °F 82% 30.16 in 10.0 mi South 4.6 mph - N/A   Clear
6:55 AM 59.0 °F - 55.4 °F 88% 30.16 in 10.0 mi South 5.8 mph - N/A   Clear
7:15 AM 59.0 °F - 55.4 °F 88% 30.16 in 10.0 mi South 4.6 mph - N/A   Clear
7:35 AM 59.0 °F - 57.2 °F 94% 30.17 in 10.0 mi South 4.6 mph - N/A   Clear
8:15 AM 62.6 °F - 57.2 °F 82% 30.18 in 10.0 mi South 4.6 mph - N/A   Clear
8:35 AM 62.6 °F - 57.2 °F 82% 30.19 in 10.0 mi South 4.6 mph - N/A   Scattered Clouds
8:55 AM 62.6 °F - 55.4 °F 77% 30.19 in 10.0 mi SSW 4.6 mph - N/A   Scattered Clouds
9:15 AM 64.4 °F - 59.0 °F 83% 30.20 in 10.0 mi SSW 5.8 mph - N/A   Scattered Clouds
9:35 AM 64.4 °F - 57.2 °F 77% 30.20 in 10.0 mi SSW 5.8 mph - N/A   Scattered Clouds
9:55 AM 68.0 °F - 57.2 °F 68% 30.20 in 10.0 mi South 6.9 mph - N/A   Scattered Clouds
10:15 AM 68.0 °F - 57.2 °F 68% 30.20 in 10.0 mi SSW 8.1 mph - N/A   Scattered Clouds
10:35 AM 69.8 °F - 57.2 °F 64% 30.20 in 10.0 mi SSW 6.9 mph - N/A   Scattered Clouds
10:55 AM 75.2 °F - 59.0 °F 57% 30.21 in 10.0 mi South 5.8 mph - N/A   Clear
11:15 AM 75.2 °F - 59.0 °F 57% 30.21 in 10.0 mi SSW 6.9 mph - N/A   Clear
11:35 AM 75.2 °F - 55.4 °F 50% 30.20 in 10.0 mi SSW 5.8 mph - N/A   Clear
11:55 AM 75.2 °F - 51.8 °F 44% 30.20 in 10.0 mi SSW 6.9 mph - N/A   Clear
12:15 PM 77.0 °F - 55.4 °F 47% 30.18 in 10.0 mi SSW 5.8 mph - N/A   Clear
12:35 PM 80.6 °F 80.5 °F 55.4 °F 42% 30.17 in 10.0 mi SSW 9.2 mph - N/A   Clear
12:55 PM 80.6 °F 80.3 °F 53.6 °F 39% 30.16 in 10.0 mi South 3.5 mph - N/A   Clear
1:15 PM 80.6 °F 80.3 °F 53.6 °F 39% 30.16 in 10.0 mi South 9.2 mph - N/A   Clear
1:35 PM 80.6 °F - 51.8 °F 37% 30.14 in 10.0 mi SSE 8.1 mph - N/A   Clear
2:15 PM 80.6 °F - 51.8 °F 37% 30.13 in 10.0 mi South 9.2 mph - N/A   Clear
2:35 PM 80.6 °F - 50.0 °F 34% 30.12 in 10.0 mi South 5.8 mph 17.3 mph N/A   Clear
2:55 PM 80.6 °F - 51.8 °F 37% 30.12 in 10.0 mi SSE 9.2 mph - N/A   Clear
3:15 PM 80.6 °F - 51.8 °F 37% 30.11 in 10.0 mi SSE 9.2 mph - N/A   Clear
3:35 PM 80.6 °F - 51.8 °F 37% 30.10 in 10.0 mi SSE 8.1 mph - N/A   Clear
3:55 PM 82.4 °F - 51.8 °F 35% 30.09 in 10.0 mi SSE 8.1 mph 16.1 mph N/A   Clear
4:15 PM 80.6 °F - 51.8 °F 37% 30.09 in 10.0 mi South 10.4 mph - N/A   Clear
4:35 PM 80.6 °F - 51.8 °F 37% 30.09 in 10.0 mi South 5.8 mph - N/A   Clear
4:55 PM 82.4 °F - 51.8 °F 35% 30.08 in 10.0 mi SSE 5.8 mph - N/A   Clear
5:35 PM 80.6 °F - 50.0 °F 34% 30.06 in 10.0 mi SSE 6.9 mph - N/A   Clear
5:55 PM 80.6 °F - 51.8 °F 37% 30.06 in 10.0 mi SE 5.8 mph - N/A   Scattered Clouds
6:15 PM 80.6 °F 80.3 °F 53.6 °F 39% 30.06 in 10.0 mi SSE 5.8 mph - N/A   Clear
6:35 PM 80.6 °F 80.3 °F 53.6 °F 39% 30.06 in 10.0 mi SSE 5.8 mph - N/A   Clear
6:55 PM 80.6 °F 80.5 °F 55.4 °F 42% 30.06 in 10.0 mi SSE 6.9 mph - N/A   Clear
7:15 PM 78.8 °F - 55.4 °F 44% 30.06 in 10.0 mi SSE 6.9 mph - N/A   Clear
7:35 PM 75.2 °F - 55.4 °F 50% 30.06 in 10.0 mi SSE 5.8 mph - N/A   Scattered Clouds
7:55 PM 75.2 °F - 55.4 °F 50% 30.05 in 10.0 mi SSE 5.8 mph - N/A   Clear
8:15 PM 73.4 °F - 59.0 °F 61% 30.06 in 10.0 mi SSE 5.8 mph - N/A   Clear
8:35 PM 75.2 °F - 59.0 °F 57% 30.06 in 10.0 mi SE 4.6 mph - N/A   Clear
8:55 PM 71.6 °F - 57.2 °F 60% 30.06 in 10.0 mi SSE 5.8 mph - N/A   Clear
9:15 PM 71.6 °F - 55.4 °F 57% 30.06 in 10.0 mi SE 3.5 mph - N/A   Clear
9:35 PM 69.8 °F - 55.4 °F 60% 30.06 in 10.0 mi SE 4.6 mph - N/A   Clear
9:55 PM 68.0 °F - 55.4 °F 64% 30.06 in 10.0 mi SE 4.6 mph - N/A   Clear
10:15 PM 68.0 °F - 55.4 °F 64% 30.07 in 10.0 mi SSE 6.9 mph - N/A   Clear
10:35 PM 68.0 °F - 55.4 °F 64% 30.07 in 10.0 mi SE 8.1 mph - N/A   Clear
10:55 PM 69.8 °F - 55.4 °F 60% 30.07 in 10.0 mi SSE 9.2 mph - N/A   Clear
11:15 PM 69.8 °F - 53.6 °F 56% 30.07 in 10.0 mi SSE 10.4 mph - N/A   Clear
11:35 PM 68.0 °F - 53.6 °F 60% 30.07 in 10.0 mi SSE 8.1 mph - N/A   Clear
11:55 PM 68.0 °F - 53.6 °F 60% 30.08 in 10.0 mi SSE 9.2 mph - N/A   Clear